Location: Houhaj�rvi
(61.2833°N, 23.0000°E)
Time: 18:18:55
(UTC+00:00)

Terra - Pass Details

Date: 27 February 2020
Orbit: 701 x 703 km, 98.2° (Epoch: 06 April)

Event Time Altitude Azimuth Distance (km) Brightness Sun altitude
Exits shadow 21:36:23 19° 299° (WNW) 1,677 4.1 -35.7°
Drops below altitude 10° 21:38:29 10° 323° (NW) 2,186 5.1 -35.8°
Sets 21:41:15 0° 339° (NNW) 3,110 6.2 -35.9°
